Location: Ariel
(45.9570°N, 122.5700°W)
Time: 18:35:46
(UTC-07:00)

Altair - Pass Details

Date: 22 July 2019
Orbit: 1501 x 1683 km, 47.2° (Epoch: 22 August)

Event Time Altitude Azimuth Distance (km) Brightness Sun altitude
Rises 19:08:28 0° 292° (WNW) 4,656 11.8 15.7°
Reaches altitude 10° 19:11:41 10° 286° (WNW) 3,687 12.6 15.2°
Maximum altitude 19:20:06 41° 220° (SW) 2,130 8.8 13.8°
Drops below altitude 10° 19:28:48 10° 155° (SSE) 3,792 9.2 12.3°
Sets 19:32:10 0° 148° (SSE) 4,802 9.6 11.8°
